Time,TemperatureF,DewpointF,PressureIn,WindDirection,WindDirectionDegrees,WindSpeedMPH,WindSpeedGustMPH,Humidity,HourlyPrecipIn,Conditions,Clouds,dailyrainin,SoftwareType,DateUTC
2013-01-23 00:03:00,36.0,30.8,29.28,ESE,112,0.0,0.0,81,0.00,,,0.00,VWS V14.01,2013-01-23 00:03:00,
2013-01-23 00:09:00,36.0,30.8,29.28,East,90,0.0,0.0,81,0.00,,,0.00,VWS V14.01,2013-01-23 00:09:00,
2013-01-23 00:14:00,36.0,30.8,29.28,ESE,112,0.0,0.0,81,0.00,,,0.00,VWS V14.01,2013-01-23 00:14:00,
2013-01-23 00:20:00,36.0,30.8,29.28,East,90,0.0,0.0,81,0.00,,,0.00,VWS V14.01,2013-01-23 00:20:00,
2013-01-23 00:26:00,36.0,30.8,29.28,ESE,112,0.0,0.0,81,0.00,,,0.00,VWS V14.01,2013-01-23 00:26:00,
2013-01-23 00:32:00,36.0,30.4,29.28,ESE,112,0.0,0.0,80,0.00,,,0.00,VWS V14.01,2013-01-23 00:32:00,
2013-01-23 00:37:00,36.0,30.4,29.28,ESE,112,0.0,0.0,80,0.00,,,0.00,VWS V14.01,2013-01-23 00:37:00,
2013-01-23 00:43:00,36.1,30.5,29.28,ESE,112,0.0,0.0,80,0.00,,,0.00,VWS V14.01,2013-01-23 00:43:00,
2013-01-23 00:48:00,36.1,30.5,29.28,ENE,67,0.0,0.0,80,0.00,,,0.00,VWS V14.01,2013-01-23 00:48:00,
2013-01-23 00:54:00,36.1,30.5,29.28,SSE,157,0.0,0.0,80,0.00,,,0.00,VWS V14.01,2013-01-23 00:54:00,
2013-01-23 01:00:00,36.1,30.5,29.28,East,90,0.0,0.0,80,0.00,,,0.00,VWS V14.01,2013-01-23 01:00:00,
2013-01-23 01:06:00,36.1,30.5,29.28,East,90,0.0,0.0,80,0.00,,,0.00,VWS V14.01,2013-01-23 01:06:00,
2013-01-23 01:11:00,36.1,30.5,29.28,ESE,112,0.0,0.0,80,0.00,,,0.00,VWS V14.01,2013-01-23 01:11:00,
2013-01-23 01:17:00,36.1,30.5,29.29,ENE,67,0.0,0.0,80,0.00,,,0.00,VWS V14.01,2013-01-23 01:17:00,
2013-01-23 01:22:00,36.1,30.8,29.29,ENE,67,0.0,0.0,81,0.00,,,0.00,VWS V14.01,2013-01-23 01:22:00,
2013-01-23 01:27:00,36.1,30.8,29.29,ENE,67,0.0,0.0,81,0.00,,,0.00,VWS V14.01,2013-01-23 01:27:00,
2013-01-23 01:33:00,36.1,30.8,29.29,ESE,112,0.0,0.0,81,0.00,,,0.00,VWS V14.01,2013-01-23 01:33:00,
2013-01-23 01:39:00,36.1,30.8,29.29,SE,135,0.0,0.0,81,0.00,,,0.00,VWS V14.01,2013-01-23 01:39:00,
2013-01-23 01:45:00,36.1,30.8,29.30,ESE,112,0.0,0.0,81,0.00,,,0.00,VWS V14.01,2013-01-23 01:45:00,
2013-01-23 01:51:00,36.1,30.8,29.29,ESE,112,0.0,0.0,81,0.00,,,0.00,VWS V14.01,2013-01-23 01:51:00,
2013-01-23 01:57:00,36.1,30.8,29.29,ESE,112,0.0,0.0,81,0.00,,,0.00,VWS V14.01,2013-01-23 01:57:00,
2013-01-23 02:04:00,36.1,30.8,29.30,East,90,0.0,0.0,81,0.00,,,0.00,VWS V14.01,2013-01-23 02:04:00,
2013-01-23 02:09:00,36.0,30.8,29.30,ESE,112,0.0,0.0,81,0.00,,,0.00,VWS V14.01,2013-01-23 02:09:00,
2013-01-23 02:14:00,36.0,31.0,29.30,East,90,0.0,0.0,82,0.00,,,0.00,VWS V14.01,2013-01-23 02:14:00,
2013-01-23 02:20:00,36.0,31.0,29.30,East,90,0.0,0.0,82,0.00,,,0.00,VWS V14.01,2013-01-23 02:20:00,
2013-01-23 02:26:00,36.0,31.0,29.30,ESE,112,0.0,0.0,82,0.00,,,0.00,VWS V14.01,2013-01-23 02:26:00,
2013-01-23 02:32:00,36.0,31.4,29.30,ENE,67,0.0,0.0,83,0.00,,,0.00,VWS V14.01,2013-01-23 02:32:00,
2013-01-23 02:37:00,35.8,31.1,29.30,East,90,0.0,0.0,83,0.00,,,0.00,VWS V14.01,2013-01-23 02:37:00,
2013-01-23 02:43:00,35.8,31.1,29.30,ESE,112,0.0,0.0,83,0.00,,,0.00,VWS V14.01,2013-01-23 02:43:00,
2013-01-23 02:49:00,35.8,31.1,29.30,ENE,67,0.0,0.0,83,0.00,,,0.00,VWS V14.01,2013-01-23 02:49:00,
2013-01-23 02:55:00,35.8,31.1,29.31,ENE,67,0.0,0.0,83,0.00,,,0.00,VWS V14.01,2013-01-23 02:55:00,
2013-01-23 03:01:00,35.8,31.1,29.31,ENE,67,0.0,0.0,83,0.00,,,0.00,VWS V14.01,2013-01-23 03:01:00,
2013-01-23 03:06:00,35.8,31.1,29.30,East,90,0.0,0.0,83,0.00,,,0.00,VWS V14.01,2013-01-23 03:06:00,
2013-01-23 03:12:00,35.8,31.1,29.31,ESE,112,0.0,0.0,83,0.00,,,0.00,VWS V14.01,2013-01-23 03:12:00,
2013-01-23 03:17:00,35.8,31.1,29.31,East,90,0.0,0.0,83,0.00,,,0.00,VWS V14.01,2013-01-23 03:17:00,
2013-01-23 03:22:00,35.8,31.5,29.31,East,90,0.0,0.0,84,0.00,,,0.00,VWS V14.01,2013-01-23 03:22:00,
2013-01-23 03:28:00,35.8,31.5,29.31,ESE,112,0.0,0.0,84,0.00,,,0.00,VWS V14.01,2013-01-23 03:28:00,
2013-01-23 03:34:00,35.8,31.5,29.31,ESE,112,0.0,0.0,84,0.00,,,0.00,VWS V14.01,2013-01-23 03:34:00,
2013-01-23 03:40:00,35.8,31.5,29.31,ENE,67,0.0,0.0,84,0.00,,,0.00,VWS V14.01,2013-01-23 03:40:00,
2013-01-23 03:46:00,35.8,31.5,29.31,East,90,0.0,0.0,84,0.00,,,0.00,VWS V14.01,2013-01-23 03:46:00,
2013-01-23 03:52:00,35.8,31.5,29.30,East,90,0.0,0.0,84,0.00,,,0.00,VWS V14.01,2013-01-23 03:52:00,
2013-01-23 03:58:00,35.8,31.5,29.31,East,90,0.0,0.0,84,0.00,,,0.00,VWS V14.01,2013-01-23 03:58:00,
2013-01-23 04:03:00,35.4,31.1,29.31,ENE,67,0.0,0.0,84,0.00,,,0.00,VWS V14.01,2013-01-23 04:03:00,
2013-01-23 04:09:00,35.4,31.1,29.31,ESE,112,0.0,0.0,84,0.00,,,0.00,VWS V14.01,2013-01-23 04:09:00,
2013-01-23 04:14:00,35.4,31.1,29.31,ENE,67,0.0,0.0,84,0.00,,,0.00,VWS V14.01,2013-01-23 04:14:00,
2013-01-23 04:20:00,35.4,31.1,29.31,East,90,0.0,0.0,84,0.00,,,0.00,VWS V14.01,2013-01-23 04:20:00,
2013-01-23 04:26:00,35.4,31.4,29.31,ENE,67,0.0,0.0,85,0.00,,,0.00,VWS V14.01,2013-01-23 04:26:00,
2013-01-23 04:32:00,35.4,31.4,29.31,ENE,67,0.0,0.0,85,0.00,,,0.00,VWS V14.01,2013-01-23 04:32:00,
2013-01-23 04:37:00,35.4,31.4,29.31,East,90,0.0,0.0,85,0.00,,,0.00,VWS V14.01,2013-01-23 04:37:00,
2013-01-23 04:42:00,35.4,31.4,29.31,East,90,0.0,0.0,85,0.00,,,0.00,VWS V14.01,2013-01-23 04:42:00,
2013-01-23 04:48:00,35.4,31.4,29.32,ESE,112,0.0,0.0,85,0.00,,,0.00,VWS V14.01,2013-01-23 04:48:00,
2013-01-23 04:54:00,35.4,31.4,29.32,East,90,0.0,0.0,85,0.00,,,0.00,VWS V14.01,2013-01-23 04:54:00,
2013-01-23 05:00:00,35.4,31.4,29.31,ENE,67,0.0,0.0,85,0.00,,,0.00,VWS V14.01,2013-01-23 05:00:00,
2013-01-23 05:01:00,35.4,31.4,29.31,ENE,67,0.0,0.0,85,0.00,,,0.00,VWS V14.01,2013-01-23 05:01:00,
2013-01-23 05:05:00,35.4,31.4,29.31,ENE,67,0.0,0.0,85,0.00,,,0.00,VWS V14.01,2013-01-23 05:05:00,
2013-01-23 05:10:00,35.2,31.1,29.31,ENE,67,0.0,0.0,85,0.00,,,0.00,VWS V14.01,2013-01-23 05:10:00,
2013-01-23 05:15:00,35.2,31.1,29.31,East,90,0.0,0.0,85,0.00,,,0.00,VWS V14.01,2013-01-23 05:15:00,
2013-01-23 05:21:00,35.2,31.1,29.31,East,90,0.0,0.0,85,0.00,,,0.00,VWS V14.01,2013-01-23 05:21:00,
2013-01-23 05:27:00,34.9,30.9,29.31,ESE,112,0.0,0.0,85,0.00,,,0.00,VWS V14.01,2013-01-23 05:27:00,
2013-01-23 05:32:00,34.9,30.9,29.31,ESE,112,0.0,0.0,85,0.00,,,0.00,VWS V14.01,2013-01-23 05:32:00,
2013-01-23 05:38:00,34.9,30.9,29.31,ESE,112,0.0,0.0,85,0.00,,,0.00,VWS V14.01,2013-01-23 05:38:00,
2013-01-23 05:44:00,34.9,30.9,29.31,ENE,67,0.0,0.0,85,0.00,,,0.00,VWS V14.01,2013-01-23 05:44:00,
2013-01-23 05:50:00,34.9,30.9,29.31,East,90,0.0,0.0,85,0.00,,,0.00,VWS V14.01,2013-01-23 05:50:00,
2013-01-23 05:55:00,34.9,30.9,29.31,ENE,67,0.0,0.0,85,0.00,,,0.00,VWS V14.01,2013-01-23 05:55:00,
2013-01-23 06:00:00,34.9,30.9,29.32,ENE,67,0.0,0.0,85,0.00,,,0.00,VWS V14.01,2013-01-23 06:00:00,
2013-01-23 06:06:00,34.9,30.9,29.31,ENE,67,0.0,0.0,85,0.00,,,0.00,VWS V14.01,2013-01-23 06:06:00,
2013-01-23 06:11:00,34.9,31.1,29.32,ENE,67,0.0,0.0,86,0.00,,,0.00,VWS V14.01,2013-01-23 06:11:00,
2013-01-23 06:17:00,34.9,31.1,29.32,East,90,0.0,0.0,86,0.00,,,0.00,VWS V14.01,2013-01-23 06:17:00,
2013-01-23 06:22:00,35.1,31.0,29.33,East,90,0.0,0.0,85,0.00,,,0.00,VWS V14.01,2013-01-23 06:22:00,
2013-01-23 06:28:00,35.2,31.4,29.33,East,90,0.0,0.0,86,0.00,,,0.00,VWS V14.01,2013-01-23 06:28:00,
2013-01-23 06:33:00,35.2,31.4,29.33,East,90,0.0,0.0,86,0.00,,,0.00,VWS V14.01,2013-01-23 06:33:00,
2013-01-23 06:39:00,35.2,31.4,29.33,ENE,67,0.0,0.0,86,0.00,,,0.00,VWS V14.01,2013-01-23 06:39:00,
2013-01-23 06:45:00,35.2,31.4,29.33,East,90,0.0,0.0,86,0.00,,,0.00,VWS V14.01,2013-01-23 06:45:00,
2013-01-23 06:50:00,35.2,31.4,29.33,ENE,67,0.0,0.0,86,0.00,,,0.00,VWS V14.01,2013-01-23 06:50:00,
2013-01-23 06:56:00,35.2,31.4,29.34,ENE,67,0.0,0.0,86,0.00,,,0.00,VWS V14.01,2013-01-23 06:56:00,
2013-01-23 07:02:00,35.2,31.4,29.34,ENE,67,0.0,0.0,86,0.00,,,0.00,VWS V14.01,2013-01-23 07:02:00,
2013-01-23 07:08:00,35.2,31.4,29.34,ENE,67,0.0,0.0,86,0.00,,,0.00,VWS V14.01,2013-01-23 07:08:00,
2013-01-23 07:13:00,35.2,31.4,29.34,ENE,67,0.0,0.0,86,0.00,,,0.00,VWS V14.01,2013-01-23 07:13:00,
2013-01-23 07:19:00,35.2,31.4,29.34,ESE,112,0.0,0.0,86,0.00,,,0.00,VWS V14.01,2013-01-23 07:19:00,
2013-01-23 07:25:00,35.2,31.4,29.34,ESE,112,0.0,0.0,86,0.00,,,0.00,VWS V14.01,2013-01-23 07:25:00,
2013-01-23 07:31:00,35.2,31.4,29.34,East,90,0.0,0.0,86,0.00,,,0.00,VWS V14.01,2013-01-23 07:31:00,
2013-01-23 07:37:00,35.2,31.4,29.34,ESE,112,0.0,0.0,86,0.00,,,0.00,VWS V14.01,2013-01-23 07:37:00,
2013-01-23 07:42:00,35.2,31.4,29.34,East,90,0.0,0.0,86,0.00,,,0.00,VWS V14.01,2013-01-23 07:42:00,
2013-01-23 07:47:00,35.2,31.4,29.34,East,90,0.0,0.0,86,0.00,,,0.00,VWS V14.01,2013-01-23 07:47:00,
2013-01-23 07:53:00,35.2,31.4,29.34,ESE,112,0.0,0.0,86,0.00,,,0.00,VWS V14.01,2013-01-23 07:53:00,
2013-01-23 07:58:00,35.2,31.4,29.35,ESE,112,0.0,0.0,86,0.00,,,0.00,VWS V14.01,2013-01-23 07:58:00,
2013-01-23 08:03:00,35.2,31.4,29.35,ENE,67,0.0,0.0,86,0.00,,,0.00,VWS V14.01,2013-01-23 08:03:00,
2013-01-23 08:08:00,35.2,31.4,29.35,East,90,0.0,0.0,86,0.00,,,0.00,VWS V14.01,2013-01-23 08:08:00,
2013-01-23 08:14:00,35.2,31.4,29.36,East,90,0.0,0.0,86,0.00,,,0.00,VWS V14.01,2013-01-23 08:14:00,
2013-01-23 08:20:00,35.2,31.4,29.35,ENE,67,0.0,0.0,86,0.00,,,0.00,VWS V14.01,2013-01-23 08:20:00,
2013-01-23 08:25:00,34.9,31.1,29.35,ESE,112,0.0,0.0,86,0.00,,,0.00,VWS V14.01,2013-01-23 08:25:00,
2013-01-23 08:30:00,34.7,31.0,29.36,ESE,112,0.0,0.0,86,0.00,,,0.00,VWS V14.01,2013-01-23 08:30:00,
2013-01-23 08:36:00,34.5,30.8,29.36,ENE,67,0.0,0.0,86,0.00,,,0.00,VWS V14.01,2013-01-23 08:36:00,
2013-01-23 08:42:00,34.7,31.2,29.36,ENE,67,0.0,0.0,87,0.00,,,0.00,VWS V14.01,2013-01-23 08:42:00,
2013-01-23 08:48:00,34.9,31.4,29.36,East,90,0.0,0.0,87,0.00,,,0.00,VWS V14.01,2013-01-23 08:48:00,
2013-01-23 08:53:00,34.9,31.4,29.36,East,90,0.0,0.0,87,0.00,,,0.00,VWS V14.01,2013-01-23 08:53:00,
2013-01-23 08:59:00,35.1,31.6,29.36,ENE,67,0.0,0.0,87,0.00,,,0.00,VWS V14.01,2013-01-23 08:59:00,
2013-01-23 09:04:00,34.9,31.4,29.36,ENE,67,0.0,0.0,87,0.00,,,0.00,VWS V14.01,2013-01-23 09:04:00,
2013-01-23 09:10:00,35.2,31.7,29.37,ESE,112,0.0,0.0,87,0.00,,,0.00,VWS V14.01,2013-01-23 09:10:00,
2013-01-23 09:15:00,35.2,31.7,29.37,East,90,0.0,0.0,87,0.00,,,0.00,VWS V14.01,2013-01-23 09:15:00,
2013-01-23 09:21:00,35.4,31.9,29.37,ENE,67,0.0,0.0,87,0.00,,,0.00,VWS V14.01,2013-01-23 09:21:00,
2013-01-23 09:27:00,35.4,31.9,29.37,ENE,67,0.0,0.0,87,0.00,,,0.00,VWS V14.01,2013-01-23 09:27:00,
2013-01-23 09:33:00,35.8,32.3,29.37,ESE,112,0.0,0.0,87,0.00,,,0.00,VWS V14.01,2013-01-23 09:33:00,
2013-01-23 09:39:00,35.8,32.0,29.37,East,90,0.0,0.0,86,0.00,,,0.00,VWS V14.01,2013-01-23 09:39:00,
2013-01-23 09:44:00,35.8,32.0,29.37,ENE,67,0.0,0.0,86,0.00,,,0.00,VWS V14.01,2013-01-23 09:44:00,
2013-01-23 09:50:00,36.1,32.3,29.37,ENE,67,0.0,0.0,86,0.00,,,0.00,VWS V14.01,2013-01-23 09:50:00,
2013-01-23 09:56:00,36.1,32.3,29.37,ESE,112,0.0,0.0,86,0.00,,,0.00,VWS V14.01,2013-01-23 09:56:00,
2013-01-23 10:01:00,36.3,32.5,29.37,East,90,0.0,0.0,86,0.00,,,0.00,VWS V14.01,2013-01-23 10:01:00,
2013-01-23 10:06:00,36.3,32.5,29.37,ESE,112,0.0,0.0,86,0.00,,,0.00,VWS V14.01,2013-01-23 10:06:00,
2013-01-23 10:12:00,36.5,32.4,29.37,ENE,67,0.0,0.0,85,0.00,,,0.00,VWS V14.01,2013-01-23 10:12:00,
2013-01-23 10:17:00,36.7,32.6,29.37,East,90,0.0,0.0,85,0.00,,,0.00,VWS V14.01,2013-01-23 10:17:00,
2013-01-23 10:23:00,36.7,32.3,29.37,East,90,0.0,0.0,84,0.00,,,0.00,VWS V14.01,2013-01-23 10:23:00,
2013-01-23 10:29:00,37.2,32.8,29.37,ESE,112,0.0,0.0,84,0.00,,,0.00,VWS V14.01,2013-01-23 10:29:00,
2013-01-23 10:35:00,37.6,33.2,29.37,ESE,112,0.0,0.0,84,0.00,,,0.00,VWS V14.01,2013-01-23 10:35:00,
2013-01-23 10:41:00,37.6,32.9,29.37,ENE,67,0.0,0.0,83,0.00,,,0.00,VWS V14.01,2013-01-23 10:41:00,
2013-01-23 10:46:00,37.8,32.8,29.37,ENE,67,0.0,0.0,82,0.00,,,0.00,VWS V14.01,2013-01-23 10:46:00,
2013-01-23 10:52:00,37.8,32.8,29.37,ESE,112,0.0,0.0,82,0.00,,,0.00,VWS V14.01,2013-01-23 10:52:00,
2013-01-23 10:57:00,37.6,32.3,29.37,East,90,0.0,0.0,81,0.00,,,0.00,VWS V14.01,2013-01-23 10:57:00,
2013-01-23 11:03:00,37.2,31.9,29.37,ESE,112,0.0,0.0,81,0.00,,,0.00,VWS V14.01,2013-01-23 11:03:00,
2013-01-23 11:08:00,37.2,31.9,29.38,ENE,67,0.0,0.0,81,0.00,,,0.00,VWS V14.01,2013-01-23 11:08:00,
2013-01-23 11:13:00,37.2,31.9,29.38,SE,135,0.0,0.0,81,0.00,,,0.00,VWS V14.01,2013-01-23 11:13:00,
2013-01-23 11:19:00,37.0,31.7,29.37,East,90,0.0,0.0,81,0.00,,,0.00,VWS V14.01,2013-01-23 11:19:00,
2013-01-23 11:25:00,37.0,32.0,29.37,East,90,0.0,0.0,82,0.00,,,0.00,VWS V14.01,2013-01-23 11:25:00,
2013-01-23 11:30:00,37.0,32.0,29.37,East,90,0.0,0.0,82,0.00,,,0.00,VWS V14.01,2013-01-23 11:30:00,
2013-01-23 11:35:00,37.0,32.0,29.37,ENE,67,0.0,0.0,82,0.00,,,0.00,VWS V14.01,2013-01-23 11:35:00,
2013-01-23 11:41:00,37.0,31.7,29.37,ESE,112,0.0,0.0,81,0.00,,,0.00,VWS V14.01,2013-01-23 11:41:00,
2013-01-23 11:47:00,37.0,31.7,29.37,ESE,112,0.0,0.0,81,0.00,,,0.00,VWS V14.01,2013-01-23 11:47:00,
2013-01-23 11:52:00,37.0,32.0,29.36,NE,45,0.0,0.0,82,0.00,,,0.00,VWS V14.01,2013-01-23 11:52:00,
2013-01-23 11:58:00,37.2,31.9,29.37,ESE,112,0.0,0.0,81,0.00,,,0.00,VWS V14.01,2013-01-23 11:58:00,
2013-01-23 12:04:00,37.2,31.6,29.37,ESE,112,0.0,0.0,80,0.00,,,0.00,VWS V14.01,2013-01-23 12:04:00,
2013-01-23 12:10:00,37.6,32.3,29.37,ESE,112,0.0,0.0,81,0.00,,,0.00,VWS V14.01,2013-01-23 12:10:00,
2013-01-23 12:15:00,37.8,32.5,29.37,ESE,112,0.0,0.0,81,0.00,,,0.00,VWS V14.01,2013-01-23 12:15:00,
2013-01-23 12:21:00,38.1,32.8,29.36,ESE,112,0.0,0.0,81,0.00,,,0.00,VWS V14.01,2013-01-23 12:21:00,
2013-01-23 12:26:00,38.3,32.7,29.36,East,90,0.0,0.0,80,0.00,,,0.00,VWS V14.01,2013-01-23 12:26:00,
2013-01-23 12:32:00,38.3,32.4,29.36,ESE,112,0.0,0.0,79,0.00,,,0.00,VWS V14.01,2013-01-23 12:32:00,
2013-01-23 12:38:00,38.5,32.6,29.36,ESE,112,0.0,0.0,79,0.00,,,0.00,VWS V14.01,2013-01-23 12:38:00,
2013-01-23 12:43:00,38.3,32.4,29.36,SE,135,0.0,0.0,79,0.00,,,0.00,VWS V14.01,2013-01-23 12:43:00,
2013-01-23 12:49:00,38.3,32.4,29.36,East,90,0.0,0.0,79,0.00,,,0.00,VWS V14.01,2013-01-23 12:49:00,
2013-01-23 12:55:00,38.1,32.2,29.36,ENE,67,0.0,0.0,79,0.00,,,0.00,VWS V14.01,2013-01-23 12:55:00,
2013-01-23 13:00:00,37.9,32.0,29.36,ESE,112,0.0,0.0,79,0.00,,,0.00,VWS V14.01,2013-01-23 13:00:00,
2013-01-23 13:06:00,37.9,32.0,29.35,ESE,112,0.0,0.0,79,0.00,,,0.00,VWS V14.01,2013-01-23 13:06:00,
2013-01-23 13:12:00,37.9,32.0,29.35,ENE,67,0.0,0.0,79,0.00,,,0.00,VWS V14.01,2013-01-23 13:12:00,
2013-01-23 13:18:00,37.9,32.0,29.35,ESE,112,0.0,0.0,79,0.00,,,0.00,VWS V14.01,2013-01-23 13:18:00,
2013-01-23 13:23:00,37.6,31.7,29.35,ESE,112,0.0,0.0,79,0.00,,,0.00,VWS V14.01,2013-01-23 13:23:00,
2013-01-23 13:29:00,37.4,31.8,29.35,NE,45,0.0,0.0,80,0.00,,,0.00,VWS V14.01,2013-01-23 13:29:00,
2013-01-23 13:35:00,37.2,31.6,29.35,ESE,112,0.0,0.0,80,0.00,,,0.00,VWS V14.01,2013-01-23 13:35:00,
2013-01-23 13:41:00,37.2,31.6,29.34,ESE,112,0.0,0.0,80,0.00,,,0.00,VWS V14.01,2013-01-23 13:41:00,
2013-01-23 13:47:00,37.2,31.6,29.34,ESE,112,0.0,0.0,80,0.00,,,0.00,VWS V14.01,2013-01-23 13:47:00,
2013-01-23 13:52:00,37.0,31.7,29.35,East,90,0.0,0.0,81,0.00,,,0.00,VWS V14.01,2013-01-23 13:52:00,
2013-01-23 13:58:00,36.9,31.6,29.35,ESE,112,0.0,0.0,81,0.00,,,0.00,VWS V14.01,2013-01-23 13:58:00,
2013-01-23 14:04:00,36.7,31.4,29.36,ESE,112,0.0,0.0,81,0.00,,,0.00,VWS V14.01,2013-01-23 14:04:00,
2013-01-23 14:10:00,36.7,31.4,29.35,ESE,112,0.0,0.0,81,0.00,,,0.00,VWS V14.01,2013-01-23 14:10:00,
2013-01-23 14:16:00,36.7,31.7,29.34,East,90,0.0,0.0,82,0.00,,,0.00,VWS V14.01,2013-01-23 14:16:00,
2013-01-23 14:22:00,36.5,31.5,29.35,ENE,67,0.0,0.0,82,0.00,,,0.00,VWS V14.01,2013-01-23 14:22:00,
2013-01-23 14:27:00,36.5,31.5,29.35,East,90,0.0,0.0,82,0.00,,,0.00,VWS V14.01,2013-01-23 14:27:00,
2013-01-23 14:33:00,36.7,31.7,29.35,SE,135,0.0,0.0,82,0.00,,,0.00,VWS V14.01,2013-01-23 14:33:00,
2013-01-23 14:39:00,36.7,31.7,29.35,ESE,112,0.0,0.0,82,0.00,,,0.00,VWS V14.01,2013-01-23 14:39:00,
2013-01-23 14:45:00,36.7,31.7,29.35,ESE,112,0.0,0.0,82,0.00,,,0.00,VWS V14.01,2013-01-23 14:45:00,
2013-01-23 14:51:00,36.1,31.1,29.35,ESE,112,0.0,0.0,82,0.00,,,0.00,VWS V14.01,2013-01-23 14:51:00,
2013-01-23 14:57:00,35.8,31.1,29.36,East,90,0.0,0.0,83,0.00,,,0.00,VWS V14.01,2013-01-23 14:57:00,
2013-01-23 15:03:00,35.4,31.1,29.36,SE,135,0.0,0.0,84,0.00,,,0.00,VWS V14.01,2013-01-23 15:03:00,
2013-01-23 15:08:00,35.2,30.9,29.35,ESE,112,0.0,0.0,84,0.00,,,0.00,VWS V14.01,2013-01-23 15:08:00,
2013-01-23 15:14:00,35.2,30.9,29.35,ESE,112,0.0,0.0,84,0.00,,,0.00,VWS V14.01,2013-01-23 15:14:00,
2013-01-23 15:20:00,35.2,30.9,29.35,ESE,112,0.0,0.0,84,0.00,,,0.00,VWS V14.01,2013-01-23 15:20:00,
2013-01-23 15:26:00,35.4,31.1,29.35,ENE,67,0.0,0.0,84,0.00,,,0.00,VWS V14.01,2013-01-23 15:26:00,
2013-01-23 15:31:00,35.4,31.1,29.36,ESE,112,0.0,0.0,84,0.00,,,0.00,VWS V14.01,2013-01-23 15:31:00,
2013-01-23 15:37:00,35.4,31.1,29.35,ENE,67,0.0,0.0,84,0.00,,,0.00,VWS V14.01,2013-01-23 15:37:00,
2013-01-23 15:43:00,35.2,30.9,29.36,ESE,112,0.0,0.0,84,0.00,,,0.00,VWS V14.01,2013-01-23 15:43:00,
2013-01-23 15:49:00,35.4,31.1,29.35,ESE,112,0.0,0.0,84,0.00,,,0.00,VWS V14.01,2013-01-23 15:49:00,
2013-01-23 15:55:00,35.4,31.1,29.35,SE,135,0.0,0.0,84,0.00,,,0.00,VWS V14.01,2013-01-23 15:55:00,
2013-01-23 16:00:00,35.4,31.1,29.35,East,90,0.0,0.0,84,0.00,,,0.00,VWS V14.01,2013-01-23 16:00:00,
2013-01-23 16:06:00,35.2,30.9,29.35,ESE,112,0.0,0.0,84,0.00,,,0.00,VWS V14.01,2013-01-23 16:06:00,
2013-01-23 16:12:00,34.5,30.5,29.35,ESE,112,0.0,0.0,85,0.00,,,0.00,VWS V14.01,2013-01-23 16:12:00,
2013-01-23 16:18:00,34.3,30.6,29.35,ENE,67,0.0,0.0,86,0.00,,,0.00,VWS V14.01,2013-01-23 16:18:00,
2013-01-23 16:24:00,34.3,30.6,29.35,ENE,67,0.0,0.0,86,0.00,,,0.00,VWS V14.01,2013-01-23 16:24:00,
2013-01-23 16:30:00,34.0,30.5,29.35,SSE,157,0.0,0.0,87,0.00,,,0.00,VWS V14.01,2013-01-23 16:30:00,
2013-01-23 16:36:00,34.0,30.5,29.35,NE,45,0.0,0.0,87,0.00,,,0.00,VWS V14.01,2013-01-23 16:36:00,
2013-01-23 16:42:00,34.0,30.5,29.36,SE,135,0.0,0.0,87,0.00,,,0.00,VWS V14.01,2013-01-23 16:42:00,
2013-01-23 16:47:00,34.0,30.5,29.36,SE,135,0.0,0.0,87,0.00,,,0.00,VWS V14.01,2013-01-23 16:47:00,
2013-01-23 16:53:00,34.2,30.7,29.36,SE,135,0.0,0.0,87,0.00,,,0.00,VWS V14.01,2013-01-23 16:53:00,
2013-01-23 16:58:00,34.3,30.8,29.35,ESE,112,0.0,0.0,87,0.00,,,0.00,VWS V14.01,2013-01-23 16:58:00,
2013-01-23 17:03:00,34.3,30.8,29.35,ESE,112,0.0,0.0,87,0.00,,,0.00,VWS V14.01,2013-01-23 17:03:00,
2013-01-23 17:09:00,34.3,30.8,29.36,SE,135,0.0,0.0,87,0.00,,,0.00,VWS V14.01,2013-01-23 17:09:00,
2013-01-23 17:14:00,34.3,30.8,29.36,East,90,0.0,0.0,87,0.00,,,0.00,VWS V14.01,2013-01-23 17:14:00,
2013-01-23 17:20:00,34.3,30.8,29.36,ESE,112,0.0,0.0,87,0.00,,,0.00,VWS V14.01,2013-01-23 17:20:00,
2013-01-23 17:25:00,34.2,30.7,29.36,ESE,112,0.0,0.0,87,0.00,,,0.00,VWS V14.01,2013-01-23 17:25:00,
2013-01-23 17:31:00,34.2,30.7,29.36,SE,135,0.0,0.0,87,0.00,,,0.00,VWS V14.01,2013-01-23 17:31:00,
2013-01-23 17:37:00,34.2,30.7,29.36,East,90,0.0,0.0,87,0.00,,,0.00,VWS V14.01,2013-01-23 17:37:00,
2013-01-23 17:42:00,34.2,30.7,29.36,East,90,0.0,0.0,87,0.00,,,0.00,VWS V14.01,2013-01-23 17:42:00,
2013-01-23 17:48:00,34.2,30.7,29.36,NE,45,0.0,0.0,87,0.00,,,0.00,VWS V14.01,2013-01-23 17:48:00,
2013-01-23 17:53:00,34.2,30.7,29.36,ESE,112,0.0,0.0,87,0.00,,,0.00,VWS V14.01,2013-01-23 17:53:00,
2013-01-23 17:59:00,34.3,30.8,29.36,ESE,112,0.0,0.0,87,0.00,,,0.00,VWS V14.01,2013-01-23 17:59:00,
2013-01-23 18:04:00,34.3,30.8,29.36,ENE,67,0.0,0.0,87,0.00,,,0.00,VWS V14.01,2013-01-23 18:04:00,
2013-01-23 18:10:00,34.3,30.8,29.36,ESE,112,0.0,0.0,87,0.00,,,0.00,VWS V14.01,2013-01-23 18:10:00,
2013-01-23 18:15:00,34.3,30.8,29.36,East,90,0.0,0.0,87,0.00,,,0.00,VWS V14.01,2013-01-23 18:15:00,
2013-01-23 18:21:00,34.3,30.8,29.36,East,90,0.0,0.0,87,0.00,,,0.00,VWS V14.01,2013-01-23 18:21:00,
2013-01-23 18:27:00,34.3,30.8,29.36,ESE,112,0.0,0.0,87,0.00,,,0.00,VWS V14.01,2013-01-23 18:27:00,
2013-01-23 18:33:00,34.3,30.8,29.36,ESE,112,0.0,0.0,87,0.00,,,0.00,VWS V14.01,2013-01-23 18:33:00,
2013-01-23 18:39:00,34.3,30.8,29.36,ESE,112,0.0,0.0,87,0.00,,,0.00,VWS V14.01,2013-01-23 18:39:00,
2013-01-23 18:44:00,34.3,30.6,29.36,ESE,112,0.0,0.0,86,0.00,,,0.00,VWS V14.01,2013-01-23 18:44:00,
2013-01-23 18:49:00,34.3,30.6,29.36,East,90,0.0,0.0,86,0.00,,,0.00,VWS V14.01,2013-01-23 18:49:00,
2013-01-23 18:55:00,34.3,30.3,29.36,SE,135,0.0,0.0,85,0.00,,,0.00,VWS V14.01,2013-01-23 18:55:00,
2013-01-23 19:01:00,34.5,30.5,29.36,SE,135,0.0,0.0,85,0.00,,,0.00,VWS V14.01,2013-01-23 19:01:00,
2013-01-23 19:06:00,34.5,30.5,29.36,East,90,0.0,0.0,85,0.00,,,0.00,VWS V14.01,2013-01-23 19:06:00,
2013-01-23 19:12:00,34.7,30.4,29.36,ESE,112,0.0,0.0,84,0.00,,,0.00,VWS V14.01,2013-01-23 19:12:00,
2013-01-23 19:18:00,34.7,30.4,29.36,ESE,112,0.0,0.0,84,0.00,,,0.00,VWS V14.01,2013-01-23 19:18:00,
2013-01-23 19:23:00,34.7,30.1,29.36,SE,135,0.0,0.0,83,0.00,,,0.00,VWS V14.01,2013-01-23 19:23:00,
2013-01-23 19:29:00,34.7,30.1,29.36,ESE,112,0.0,0.0,83,0.00,,,0.00,VWS V14.01,2013-01-23 19:29:00,
2013-01-23 19:34:00,34.7,30.1,29.36,ESE,112,0.0,0.0,83,0.00,,,0.00,VWS V14.01,2013-01-23 19:34:00,
2013-01-23 19:40:00,34.7,30.1,29.36,SE,135,0.0,0.0,83,0.00,,,0.00,VWS V14.01,2013-01-23 19:40:00,
2013-01-23 19:46:00,34.9,30.3,29.36,ESE,112,0.0,0.0,83,0.00,,,0.00,VWS V14.01,2013-01-23 19:46:00,
2013-01-23 19:52:00,34.9,30.3,29.37,ESE,112,0.0,0.0,83,0.00,,,0.00,VWS V14.01,2013-01-23 19:52:00,
2013-01-23 19:58:00,34.9,30.3,29.37,ESE,112,0.0,0.0,83,0.00,,,0.00,VWS V14.01,2013-01-23 19:58:00,
2013-01-23 20:04:00,34.9,30.3,29.37,SSE,157,0.0,0.0,83,0.00,,,0.00,VWS V14.01,2013-01-23 20:04:00,
2013-01-23 20:10:00,34.9,30.3,29.37,SE,135,0.0,0.0,83,0.00,,,0.00,VWS V14.01,2013-01-23 20:10:00,
2013-01-23 20:15:00,34.9,30.3,29.36,ESE,112,0.0,0.0,83,0.00,,,0.00,VWS V14.01,2013-01-23 20:15:00,
2013-01-23 20:20:00,34.9,30.3,29.37,East,90,0.0,0.0,83,0.00,,,0.00,VWS V14.01,2013-01-23 20:20:00,
2013-01-23 20:25:00,34.9,30.6,29.37,ESE,112,0.0,0.0,84,0.00,,,0.00,VWS V14.01,2013-01-23 20:25:00,
2013-01-23 20:31:00,34.9,30.6,29.38,ESE,112,0.0,0.0,84,0.00,,,0.00,VWS V14.01,2013-01-23 20:31:00,
2013-01-23 20:37:00,34.9,30.6,29.38,NE,45,0.0,0.0,84,0.00,,,0.00,VWS V14.01,2013-01-23 20:37:00,
2013-01-23 20:43:00,34.9,30.6,29.37,ESE,112,0.0,0.0,84,0.00,,,0.00,VWS V14.01,2013-01-23 20:43:00,
2013-01-23 20:49:00,34.9,30.6,29.37,East,90,0.0,0.0,84,0.00,,,0.00,VWS V14.01,2013-01-23 20:49:00,
2013-01-23 20:54:00,34.9,30.6,29.37,SE,135,0.0,0.0,84,0.00,,,0.00,VWS V14.01,2013-01-23 20:54:00,
2013-01-23 21:00:00,34.9,30.6,29.37,ESE,112,0.0,0.0,84,0.00,,,0.00,VWS V14.01,2013-01-23 21:00:00,
2013-01-23 21:06:00,34.9,30.6,29.38,ESE,112,0.0,0.0,84,0.00,,,0.00,VWS V14.01,2013-01-23 21:06:00,
2013-01-23 21:12:00,34.9,30.6,29.38,ENE,67,0.0,0.0,84,0.00,,,0.00,VWS V14.01,2013-01-23 21:12:00,
2013-01-23 21:17:00,34.9,30.6,29.38,East,90,0.0,0.0,84,0.00,,,0.00,VWS V14.01,2013-01-23 21:17:00,
2013-01-23 21:23:00,34.9,30.6,29.38,East,90,0.0,0.0,84,0.00,,,0.00,VWS V14.01,2013-01-23 21:23:00,
2013-01-23 21:29:00,34.9,30.6,29.38,SE,135,0.0,0.0,84,0.00,,,0.00,VWS V14.01,2013-01-23 21:29:00,
2013-01-23 21:35:00,34.9,30.6,29.38,East,90,0.0,0.0,84,0.00,,,0.00,VWS V14.01,2013-01-23 21:35:00,
2013-01-23 21:41:00,34.9,30.6,29.38,East,90,0.0,0.0,84,0.00,,,0.00,VWS V14.01,2013-01-23 21:41:00,
2013-01-23 21:46:00,34.9,30.6,29.38,ESE,112,0.0,0.0,84,0.00,,,0.00,VWS V14.01,2013-01-23 21:46:00,
2013-01-23 21:52:00,34.9,30.6,29.38,ESE,112,0.0,0.0,84,0.00,,,0.00,VWS V14.01,2013-01-23 21:52:00,
2013-01-23 21:58:00,34.9,30.6,29.38,ESE,112,0.0,0.0,84,0.00,,,0.00,VWS V14.01,2013-01-23 21:58:00,
2013-01-23 22:04:00,34.9,30.6,29.38,East,90,0.0,0.0,84,0.00,,,0.00,VWS V14.01,2013-01-23 22:04:00,
2013-01-23 22:09:00,34.9,30.3,29.38,ESE,112,0.0,0.0,83,0.00,,,0.00,VWS V14.01,2013-01-23 22:09:00,
2013-01-23 22:15:00,34.9,30.3,29.38,East,90,0.0,0.0,83,0.00,,,0.00,VWS V14.01,2013-01-23 22:15:00,
2013-01-23 22:21:00,34.9,30.3,29.38,ESE,112,0.0,0.0,83,0.00,,,0.00,VWS V14.01,2013-01-23 22:21:00,
2013-01-23 22:27:00,34.9,30.3,29.39,ESE,112,0.0,0.0,83,0.00,,,0.00,VWS V14.01,2013-01-23 22:27:00,
2013-01-23 22:33:00,34.9,30.3,29.39,ESE,112,0.0,0.0,83,0.00,,,0.00,VWS V14.01,2013-01-23 22:33:00,
2013-01-23 22:38:00,34.9,30.6,29.39,ESE,112,0.0,0.0,84,0.00,,,0.00,VWS V14.01,2013-01-23 22:38:00,
2013-01-23 22:44:00,34.9,30.3,29.39,ESE,112,0.0,0.0,83,0.00,,,0.00,VWS V14.01,2013-01-23 22:44:00,
2013-01-23 22:50:00,34.9,30.3,29.39,NE,45,0.0,0.0,83,0.00,,,0.00,VWS V14.01,2013-01-23 22:50:00,
2013-01-23 22:56:00,34.9,30.3,29.39,ESE,112,0.0,0.0,83,0.00,,,0.00,VWS V14.01,2013-01-23 22:56:00,
2013-01-23 23:01:00,34.9,30.3,29.39,ESE,112,0.0,0.0,83,0.00,,,0.00,VWS V14.01,2013-01-23 23:01:00,
2013-01-23 23:07:00,34.9,30.3,29.39,ESE,112,0.0,0.0,83,0.00,,,0.00,VWS V14.01,2013-01-23 23:07:00,
2013-01-23 23:13:00,34.9,30.6,29.39,ESE,112,0.0,0.0,84,0.00,,,0.00,VWS V14.01,2013-01-23 23:13:00,
2013-01-23 23:19:00,34.9,30.6,29.39,ESE,112,0.0,0.0,84,0.00,,,0.00,VWS V14.01,2013-01-23 23:19:00,
2013-01-23 23:25:00,34.9,30.6,29.40,SE,135,0.0,0.0,84,0.00,,,0.00,VWS V14.01,2013-01-23 23:25:00,
2013-01-23 23:30:00,34.9,30.6,29.40,ESE,112,0.0,0.0,84,0.00,,,0.00,VWS V14.01,2013-01-23 23:30:00,
2013-01-23 23:35:00,34.7,30.4,29.40,SE,135,0.0,0.0,84,0.00,,,0.00,VWS V14.01,2013-01-23 23:35:00,
2013-01-23 23:41:00,34.7,30.4,29.40,East,90,0.0,0.0,84,0.00,,,0.00,VWS V14.01,2013-01-23 23:41:00,
2013-01-23 23:46:00,34.7,30.4,29.40,ENE,67,0.0,0.0,84,0.00,,,0.00,VWS V14.01,2013-01-23 23:46:00,
2013-01-23 23:52:00,34.7,30.4,29.41,NE,45,0.0,0.0,84,0.00,,,0.00,VWS V14.01,2013-01-23 23:52:00,
2013-01-23 23:57:00,34.5,30.2,29.40,ESE,112,0.0,0.0,84,0.00,,,0.00,VWS V14.01,2013-01-23 23:57:00,